Dauntless Aviation
Greetings, Guest! To participate, [sign up for a free account] or [log in]
Airports North America United States Hawaii
PHNG
NGF

KANEOHE BAY MCAF AIRPORT

KANEOHE, HI, USA

Airport Info

Location

Latitude / Longitude: 21°27'1"N / 157°46'4"W
  21°27.0272'N / 157°46.08'W
  21.4505 / -157.7680
Elevation: 24 ft. (estimated)
Variation: 11E (1985)
From city: 02 miles SW of KANEOHE, HI

Operations

Facility use: Private
Sectional chart: HAWAIIAN ISLANDS
Control tower: yes
Boundary ARTCC: HONOLULU CONTROL FACILITY
FSS: HONOLULU [1-800-WX-BRIEF]
NOTAMs facility: PHNG (NOTAM-D service available)
Segmented circle: no
Lights: DUSK-DAWN
Beacon: SPLIT-CLEAR-GREEN (LIGHTED MILITARY AIRPORT)

Communications

CTAF: 120.700

Nearby radio navigation aids

VOR radial/distance VOR name Freq Var
CKH 342oT/11.7 KOKO HEAD VORTAC 113.90 11E
HNL 47oT/12.5 HONOLULU VORTAC 114.80 11E
MKK 299oT/38.5 MOLOKAI VORTAC 116.10 11E
 
NDB name Hdg/Dist Freq Var ID
WHEELER 96oT/14.9 373 11E HHI
EWABE 64oT/17.4 242 11E HN

Services

Bottled oxygen: HIGH/LOW
Bulk oxygen: HIGH/LOW

Runway Information

Runway 04/22

Dimensions: 7771 x 200 ft.
Surface: ASPHALT OR BITUMINOUS CONCRETE,NO SPECIAL SURFACE TREATMENT
Edge lights: HIGH
 
Runway 04
Runway 22
Latitude: 21-26-37.7330N 21-27-25.5318N
Longitude: 157-46-36.8436W 157-45-32.3425W
Elevation: 13.3 ft. 23.9 ft.
Visual slope indicator: 6-BOX VASI ON LEFT SIDE OF RUNWAY (3.00 degrees glide path) 6-BOX VASI ON LEFT SIDE OF RUNWAY (3.00 degrees glide path)
Approach lights: SIMPLIFIED SHORT APPROACH LIGHTING SYSTEM WITH RUWNAY ALIGNMENT INDICATOR LIGHTS SIMPLIFIED SHORT APPROACH LIGHTING SYSTEM WITH RUWNAY ALIGNMENT INDICATOR LIGHTS
Runway end identifier lights: yes yes
 

Additional Remarks

  • SINGLE POINT REFUELING AND NITROGEN ARE AVBL.
  • 27' WINDSOCK 178' LEFT OF CNTRLN RWY 04 /RIGHT OF RWY 22/ LOWERED TO 9' ON REQUEST.
  • BIRD HAZ ON RYS.
  • KANEOHE TOWER AND APCH CONTROL FREQS. REQUEST ALL ACFT CONTACT KANEOHE TOWER PRIOR TO TRANSITING CONTROL ZONE.
  • (A17) EXPECT DAILY CHANGE TO FLD OPER HRS MON-FRI; CLSD SAT SUN & HOL.
  • (A70) SPECTROMATIC OIL ANALYSIS PROGRAM (SOAP) IS AVBL AT NAVAL STATION PEARL HARBOR 0700-1530 MON-FRI; OTHER TIMES BY PRIOR ARRANGEMENTS.
  • (E114) J5 (NATO CODE F-44) FUEL AVBL.
  • (E60-04) E28(B) (1680').
  • RSTD: PPR FOR ALL TRAN ACFT. PPR WILL BE ISSUED ONLY DUR PUBLISHED OPR HRS; DSN 457-2121/2122. IF NO DSN DRCT ACCESS, CTC DSN OR COML. OPR FOR ACCESS, C808-257-2121/2122. NOTIFY BASE OPS, OR AFTER HRS SQUADRON DUTY OFFICER C808-216-5119, IF DELAYED OVER 30 MIN BYD PPR OR MSN CANCELED.
  • LMTD APCH BY NON-TENANT ACFT HR RSTD AND ONLY OPER CONTIGENT UPON TENANT ACFT ACTIVITY HR OF DAY, ETC.
  • SERVICE-LGT: RY 04 OLS; WAVE-OFF.
  • CSTMS/AG/IMG - PHON 3 HRS PRIOR TO ARR TO UPDATE CREW AND PAX STATUS. FAILURE TO COMPLY WILL DELAY PASSENGER DEBARKATION.
  • REQ FM NON-TENANT ACFT TO CONDUCT APCH SHOULD BE MADE TO MCAS KANEOHE BAY OPERNS EXT 257-3149/73603.
  • CAT D AFLD.
  • TRANS ALERT MAINT AVBL ON REQ.
  • CTN-HVY JET TFC INCL STU TRNG. CONVL ACFT ENTER TFC PAT 1000' JET BREAK AT 1500', 1000' DOWNWIND.
  • REQ VFR FLT TRANSITING CTA CTC TWR FOR TFC.
  • T-33 PROH FM FULL-STOP OR TOUCH AND GO LNDGS DUE PORTABLE AIR/GRND CABLE DAMAGE TO WHEEL WELL DOORS.

Instrument Procedures

No published instrument procedures available
Topographic chart at:
Satellite photo at:
Airport distance calculator
From:
Weather Reports

METAR

PHNG

PHNG 280857Z 06009G15KT 10SM SCT055 24/14 A3008 RMK AO2 SLP173 T02390139 51007 $
PHNL
12.4nm SW
PHNL 280853Z 06012G19KT 10SM FEW036 SCT048 24/15 A3007 RMK AO2 SLP182 T02390150 58000
PHHI
15.9nm W
PHHI 280858Z AUTO 29002KT 10SM BKN038 22/14 A3010 RMK AO2 SLP184 T02150140 50001 $
PHJR
18.5nm SW
PHJR 280853Z AUTO 07006KT 10SM CLR 22/14 A3009 RMK AO2 SLP194 T02220139 50000 TSNO

TAF

PHNG
TAF PHNG 2809/2909 05012G19KT 9999 FEW025 SCT050 QNH3002INS TEMPO 2809/2815 05009KT 9000 -SHRA BKN025 BKN050 T22/2811Z T28/2823Z
PHNL
12.4nm SW
PHNL 280905Z 2809/2912 05012G22KT P6SM SCT035 BKN050 FM282000 05015G25KT P6SM SCT025 BKN050
PHHI
15.9nm W
TAF PHHI 2707/2813 33006KT 9999 SCT035 QNH3005INS BECMG 2719/2720 04010G15KT 9999 BKN030 QNH3003INS WND 33009KT AFT 2802 TX24/2723Z TN16/2715Z LAST NO AMDS AFT 2707 NEXT 0107
PHJR
18.5nm SW
PHJR 280520Z 2806/2906 06006KT P6SM SCT050 FM282100 06010G20KT P6SM SCT030 BKN050
Safelog

 

Dauntless Aviation

© 2007-2014 Dauntless Aviation, all rights reserved
Information provided via PilotNav comes from a variety of official and unofficial data sources. As errors are possible, do not use PilotNav for primary flight planning purposes. Verify any information that you receive via PilotNav with current and canonical charts and other official documents. The material in this database is subject to database copyrights held by Dauntless Aviation and may not be copied without the express permission of Dauntless Aviation - licenses for use of part of all of this data are available for purchase; enquire via the Dauntless Aviation helpdesk. A number of mechanisms and markers exist in the database to protect against and identify infringement / copyright. Automated queries against this website are stictly prohibited, and all activity is logged and analyzed.